Weather Roundup
Issued by NWS

Home | Current Version | Previous Version | Text Only | Print | Product List | Glossary On
Versions: 1 2 3 4 5 6 7 8 9 10 11 12 13 14 15 16 17 18 19 20 21 22 23 24 25 26 27 28 29 30 31 32 33 34 35 36 37 38 39 40 41 42 43 44 45 46 47 48 49 50
000
NZUS93 KARX 022010
HRRWXR

CURRENT HOURLY OBSERVATIONS ACROSS
MUCH OF THE UPPER MISSISSIPPI VALLEY
NATIONAL WEATHER SERVICE LA CROSSE WI
300 PM CDT THU JUL 02 2015


...SOUTHEAST MINNESOTA...


CITY           SKY/WX    TMP DP  RH WIND       PRES   REMARKS
ROCHESTER      SUNNY     72  53  51 SE7       30.03S
ROCHESTER/MAYO FAIR      73  52  49 CALM      30.02S
WINONA         SUNNY     73  52  46 S5        30.02S
AUSTIN         SUNNY     75  52  43 SE5       30.01F
ALBERT LEA     SUNNY     73  52  46 E7        30.01S
DODGE CENTER   SUNNY     73  54  49 S3        30.03S
PRESTON        MOSUNNY   71  51  50 NE5       30.04S
OWATONNA       SUNNY     73  52  46 SE8       30.02S
FARIBAULT      SUNNY     75  54  46 E7        30.02S
$$

...ELSEWHERE IN MINNESOTA...


CITY           SKY/WX    TMP DP  RH WIND       PRES   REMARKS
MINNEAPOLIS    MOSUNNY   76  52  43 SE6       30.01S
INTNL FALLS    MOSUNNY   76  54  46 W9G17     29.94F
DULUTH         PTSUNNY   74  57  55 W9        30.00F
RED WING       SUNNY     77  48  36 SE7       30.00S
REDWOOD FALLS  PTSUNNY   75  47  36 S10       30.01R
MANKATO        MOSUNNY   73  52  46 SE7       30.01S
WORTHINGTON    PTSUNNY   68  50  52 SE9       30.02S
FAIRMONT       MOSUNNY   72  46  40 SE7       30.01S
$$

...SOUTHWEST WISCONSIN...


CITY           SKY/WX    TMP DP  RH WIND       PRES   REMARKS
LA CROSSE      SUNNY     76  53  44 N6        30.01S
PRAIRIE DU CHI SUNNY     72  50  47 E8        30.01S
BOSCOBEL       SUNNY     74  51  44 N8        30.01F
LONE ROCK      SUNNY     72  50  45 E9        30.01F
PLATTEVILLE    SUNNY     70  47  43 NE8       30.01S
FORT MC COY    SUNNY     74  47  38 E9        30.03R
CAMP DOUGLAS   SUNNY     73  53  49 E6        30.02S
VIROQUA        FAIR      72  52  48 E7        30.03S
WIS DELLS      SUNNY     71  49  46 E7        30.02F
$$

...ELSEWHERE IN WISCONSIN...


CITY           SKY/WX    TMP DP  RH WIND       PRES   REMARKS
MILWAUKEE      MOSUNNY   62  50  64 NE12      30.03F
MADISON        MOSUNNY   70  49  47 E10       30.01F
GREEN BAY      SUNNY     73  49  42 E10       30.04F
EAU CLAIRE     SUNNY     75  50  41 SE8       30.01F
BLACK RVR FLS  FAIR      75  49  39 NE6       30.01S
MEDFORD        SUNNY     72  52  49 S3        30.03F
WAUSAU         SUNNY     75  46  35 SE8       30.02F
WIS RAPIDS     SUNNY     75  44  33 VRB5      30.04F
MARSHFIELD     SUNNY     74  50  42 E8        30.03F
RICE LAKE      SUNNY     74  49  40 S5        30.03S
$$

...NORTHEAST IOWA...


CITY           SKY/WX    TMP DP  RH WIND       PRES   REMARKS
DECORAH          N/A    N/A N/A N/A MISG        N/A
MASON CITY     MOSUNNY   73  52  47 SE6       30.03S
CHARLES CITY   MOSUNNY   72  52  49 CALM      30.02S
OELWEIN        MOSUNNY   72  55  56 VRB6G15   30.01F
$$

...ELSEWHERE IN IOWA...


CITY           SKY/WX    TMP DP  RH WIND       PRES   REMARKS
DES MOINES     CLOUDY    68  49  50 E7        29.99S
IOWA CITY      PTSUNNY   73  53  49 E9        29.98S
FORT DODGE     CLOUDY    66  54  63 E8        30.01F
$$

...NORTHERN ILLINOIS...


CITY           SKY/WX    TMP DP  RH WIND       PRES   REMARKS
CHICAGO-OHARE  PTSUNNY   67  53  61 NE14      29.99F
CHICAGO-MIDWAY PTSUNNY   70  56  61 NE13      29.98F
MOLINE         MOSUNNY   72  55  55 E15       29.97F
ROCKFORD       CLOUDY    73  53  49 E12       30.01S
PEORIA         PTSUNNY   75  58  55 NE9       29.95F
$$

NOTE: "FAIR" INDICATES FEW OR NO CLOUDS BELOW 12,000 FEET WITH NO
SIGNIFICANT WEATHER AND/OR OBSTRUCTIONS TO VISIBILITY. WIND
SPEEDS ARE IN MILES-PER-HOUR.



USA.gov is the U.S. government's official web portal to all federal, state and local government web resources and services.